Regional Weather Roundup
Issued by NWS

Home | Current Version | Previous Version | Text Only | Print | Product List | Glossary On
Versions: 1 2 3 4 5 6 7 8 9 10 11 12 13 14 15 16 17 18 19 20 21 22 23 24 25 26 27 28 29 30 31 32 33 34 35 36 37 38 39 40 41 42 43 44 45 46 47 48 49 50
000
ASUS43 KMPX 271901
RWRMN
WEATHER ROUNDUP FOR MINNESOTA
NATIONAL WEATHER SERVICE TWIN CITIES/CHANHASSEN MN
200 PM CDT WED AUG 27 2014


NOTE: "FAIR" INDICATES FEW OR NO CLOUDS BELOW 12,000 FEET WITH NO
SIGNIFICANT WEATHER AND/OR OBSTRUCTIONS TO VISIBILITY. N/A MEANS
CURRENT SKY AND/OR WEATHER CONDITIONS ARE NOT AVAILABLE.

MNZ060>063-068>070-272000-
   Twin Cities Metro

CITY           SKY/WX    TMP DP  RH WIND       PRES   REMARKS
TWIN CITIES    PTSUNNY   76  53  44 VRB5      30.19F
ST PAUL        SUNNY     74  55  51 CALM      30.19F
CRYSTAL        MOSUNNY   75  54  47 SE3       30.18F
LAKEVILLE      MOSUNNY   72  57  60 SE6       30.19F
EDEN PRAIRIE   MOSUNNY   75  54  47 E3        30.18F
SOUTH ST PAUL  SUNNY     73  54  51 CALM      30.19S
LAKE ELMO      FAIR      73  55  53 CALM      30.21S
$$
MNZ001>005-007-008-013>017-022>024-027-028-272000-
   Northwest Minnesota

CITY           SKY/WX    TMP DP  RH WIND       PRES   REMARKS
BEMIDJI        MOSUNNY   69  51  51 SW3       30.18F
HALLOCK        SUNNY     73  46  38 S5        30.14F
ROSEAU         SUNNY     72  50  46 CALM      30.17S
WARROAD        SUNNY     68  54  60 E6        30.18S
THIEF RVR FALL SUNNY     70  52  52 CALM      30.18S
CROOKSTON      SUNNY     70  50  49 SW5       30.17F
FOSSTON        MOSUNNY   70  52  52 S6        30.19S
DETROIT LAKES  PTSUNNY   68  55  64 S6        30.20S
MOORHEAD       MOSUNNY   70  61  73 S5        30.17F
PARK RAPIDS    SUNNY     69  54  58 S9        30.19F
MAHNOMEN       FAIR      69  55  61 W6        30.18F
$$
MNZ006-009>011-018-025>026-272000-
   North Central Minnesota

CITY           SKY/WX    TMP DP  RH WIND       PRES   REMARKS
BAUDETTE       SUNNY     70  49  47 N3        30.17F
FLAG ISLAND    SUNNY     66  55  68 S9        30.16S
INTL FALLS     MOSUNNY   66  51  58 CALM      30.17F
WASKISH        SUNNY     70  54  56 W3        30.18S
BIG FORK       MOSUNNY   72  52  49 SW3       30.19F
LONGVILLE      SUNNY     70  55  60 SW5       30.19F
GRAND RAPIDS   MOSUNNY   66  48  52 S3        30.20F
CRANE LAKE     PTSUNNY   64  46  52 CALM      30.20F
ORR            MOSUNNY   70  46  43 CALM      30.17F
COOK           MOSUNNY   64  50  59 CALM      30.20F
WALKER         MOCLDY    67  53  60 W3        30.19F
$$
MNZ012-019>021-037-272000-
   Northeast Minnesota

CITY           SKY/WX    TMP DP  RH WIND       PRES   REMARKS
DULUTH         MOSUNNY   69  47  45 NW6       30.20F
ELY            PTSUNNY   64  46  52 W7        30.20S
HIBBING        MOSUNNY   69  48  47 SW8       30.20F
EVELETH        SUNNY     64  46  52 W7        30.21F
DULUTH HARBOR  MOSUNNY   66  55  68 E8        30.20F
TWO HARBORS    PTSUNNY   63  52  67 SW6       30.19S
SILVER BAY     SUNNY     66  54  63 SE6       30.18F
GRAND MARAIS     N/A     62  54  74 SW9       30.19S
G MARAIS ARPRT CLOUDY    61  41  48 CALM      30.20F
$$
MNZ029>031-032-039>041-046>048-054>057-064-272000-
   West Central Minnesota

CITY           SKY/WX    TMP DP  RH WIND       PRES   REMARKS
FERGUS FALLS   PTSUNNY   70  54  56 CALM      30.17F
WHEATON        MOSUNNY   68  59  73 SE7       30.18F
MORRIS         MOSUNNY   73  57  56 S6        30.17F
ALEXANDRIA     CLOUDY    69  57  65 S7        30.21F
ELBOW LAKE     CLOUDY    68  58  69 SE8       30.18F
WADENA         PTSUNNY   66  55  68 S5        30.20F
GLENWOOD       MOSUNNY   72  57  60 SE3       30.20F
APPLETON       MOSUNNY   75  57  53 SE10      30.16F
BENSON         MOSUNNY   73  59  60 SW7       30.18S
ORTONVILLE     MOSUNNY   73  57  56 S8        30.16F
MADISON        MOSUNNY   73  59  60 SE9       30.16F
WILLMAR        FAIR      73  57  56 E3        30.19F
$$
MNZ033>034-036-042>043-049>051-058-059-272000-
   Central Minnesota

CITY           SKY/WX    TMP DP  RH WIND       PRES   REMARKS
ST CLOUD       PTSUNNY   73  56  54 S9        30.20F
SAUK CENTRE    MOCLDY    69  55  61 S3        30.20F
PAYNESVILLE    PTSUNNY   68  56  66 E3        30.20F HAZE
AITKIN         CLOUDY    70  57  64 S3        30.19F
PINE RIVER     CLOUDY    66  55  68 S7        30.23S
BRAINERD       CLOUDY    65  55  70 S6        30.21F
STAPLES        CLOUDY    66  55  68 S3        30.20F
LONG PRAIRIE   PTSUNNY   70  55  60 SE5       30.20F
LITTLE FALLS   CLOUDY    66  54  63 CALM      30.21S
LITCHFIELD     MOSUNNY   75  59  57 SE3       30.19F
BUFFALO        MOSUNNY   73  55  52 SW3       30.20F
MAPLE LAKE     MOSUNNY   73  59  60 CALM      30.20F
$$
MNZ037-044-045-052-053-272000-
   East Central Minnesota

CITY           SKY/WX    TMP DP  RH WIND       PRES   REMARKS
PRINCETON      CLOUDY    72  55  56 S7        30.21F
MORA           CLOUDY    64  50  59 CALM      30.22F
CAMBRIDGE      PTSUNNY   72  54  53 CALM      30.19F
RUSH CITY      MOSUNNY   69  53  56 CALM      30.21F
MOOSE LAKE     MOSUNNY   68  50  52 CALM      30.19F
HINCKLEY       CLOUDY    68  54  60 SW3       30.22S
CLOQUET        MOSUNNY   68  46  45 CALM      30.20F
MCGREGOR       MOSUNNY   68  52  56 SW6       30.21F
$$
MNZ071>073-080-081-089-090-097-098-272000-
   Southwest Minnesota

CITY           SKY/WX    TMP DP  RH WIND       PRES   REMARKS
MONTEVIDEO     MOSUNNY   75  61  60 S6        30.18F
GRANITE FALLS  MOSUNNY   73  58  59 E7        30.18F
CANBY          PTSUNNY   72  59  64 SE3       30.17F
OLIVIA         MOSUNNY   73  55  53 S5        30.17F
PIPESTONE      PTSUNNY   72  61  68 S9G16     30.16F
WINDOM         CLOUDY    70  55  60 SE8       30.19S
JACKSON        CLOUDY    72  57  60 SE6       30.20F
TRACY          PTSUNNY   74  59  59 E7        30.17F
SLAYTON        PTSUNNY   71  59  65 CALM      30.19F
$$
MNZ065>067-074>077-082>085-091>093-272000-
   South Central Minnesota

CITY           SKY/WX    TMP DP  RH WIND       PRES   REMARKS
MANKATO        PTSUNNY   72  55  56 SE8       30.19F
NEW ULM        MOSUNNY   72  57  60 SE6       30.18F
ST JAMES       PTSUNNY   75  57  53 E9        30.20S
GLENCOE        PTSUNNY   74  54  50 SE3       30.18F
FARIBAULT      PTSUNNY   75  52  43 N3        30.20F
OWATONNA       PTSUNNY   72  57  60 CALM      30.20F
WASECA         PTSUNNY   72  55  56 CALM      30.22S
ALBERT LEA     CLOUDY    72  55  56 SE7       30.20F
$$
MNZ078>079-086>088-094>096-272000-
   Southeast Minnesota

CITY           SKY/WX    TMP DP  RH WIND       PRES   REMARKS
ROCHESTER      CLOUDY    72  57  59 CALM      30.21F
RED WING       MOSUNNY   75  55  50 S7        30.18F
STANTON        PTSUNNY   74  55  51 CALM      30.18F
DODGE CENTER   CLOUDY    72  57  60 CALM      30.21S
WINONA         PTSUNNY   73  59  60 CALM      30.19S
AUSTIN         CLOUDY    72  57  60 CALM      30.20S
PRESTON        CLOUDY    69  62  77 CALM      30.21S
$$
ABBREVIATIONS USED IN REMARKS
   TC - TEMPERATURES IN CELSIUS
  WCI - WIND CHILL INDEX
   HX - HEAT INDEX
  VSB - VISIBILITY
$$


USA.gov is the U.S. government's official web portal to all federal, state and local government web resources and services.